SES-3

Last updated on Thu Jul 03 2025 00:02:45 GMT+0000 (Coordinated Universal Time)

1 37748U 11035A 25183.54620463 -.00000094 00000+0 00000+0 0 9990 2 37748 0.4213 86.6695 0003014 347.9797 299.8017 1.00272320 51082
UTC large
Height (km)
Speed (km/s)
/
Latitude / Longitude
Inclination (degrees)
Orbital Period (minutes)
Azimuth
Elevation
Range (km)
Doppler Factor

Next 0 passes for location: London (51.5072 / 0.1276)

Sorry there are no passes over London.